Terminal Aerodrome Forecast
Issued by NWS Glasgow, MT

Home | Current Version | Previous Version | Text Only | Print | Product List | Glossary On
Versions: 1 2 3 4 5 6 7 8 9 10 11 12 13 14
000
FTUS45 KGGW 251720
TAFGGW
TAF
KGGW 251720Z 2518/2618 VRB06KT P6SM FEW090
     FM260300 10012KT P6SM SKC
     FM261200 11016KT P6SM SKC=

USA.gov is the U.S. government's official web portal to all federal, state and local government web resources and services.